Time,TemperatureF,DewpointF,PressureIn,WindDirection,WindDirectionDegrees,WindSpeedMPH,WindSpeedGustMPH,Humidity,HourlyPrecipIn,Conditions,Clouds,dailyrainin,SoftwareType,DateUTC
2013-01-23 00:16:00,12.4,2.0,30.41,West,281,0.0,2.0,64,0.00,,,0.00,weatherlink.com 1.10,2013-01-23 06:16:00,
2013-01-23 00:31:00,12.4,2.0,30.41,WNW,294,1.0,2.0,64,0.00,,,0.00,weatherlink.com 1.10,2013-01-23 06:31:00,
2013-01-23 00:46:00,12.4,3.0,30.41,West,263,0.0,2.0,65,0.00,,,0.00,weatherlink.com 1.10,2013-01-23 06:46:00,
2013-01-23 01:01:00,12.3,3.0,30.40,WNW,283,1.0,1.0,67,0.00,,,0.00,weatherlink.com 1.10,2013-01-23 07:01:00,
2013-01-23 01:16:00,12.4,3.0,30.40,West,274,0.0,1.0,66,0.00,,,0.00,weatherlink.com 1.10,2013-01-23 07:16:00,
2013-01-23 01:46:00,12.6,3.0,30.40,West,264,1.0,3.0,66,0.00,,,0.00,weatherlink.com 1.10,2013-01-23 07:46:00,
2013-01-23 02:01:00,12.8,4.0,30.41,West,264,0.0,2.0,67,0.00,,,0.00,weatherlink.com 1.10,2013-01-23 08:01:00,
2013-01-23 02:16:00,12.8,3.0,30.40,WSW,253,0.0,2.0,66,0.00,,,0.00,weatherlink.com 1.10,2013-01-23 08:16:00,
2013-01-23 02:31:00,12.9,3.0,30.39,WNW,290,0.0,1.0,65,0.00,,,0.00,weatherlink.com 1.10,2013-01-23 08:31:00,
2013-01-23 02:46:00,13.0,3.0,30.39,West,264,0.0,1.0,64,0.00,,,0.00,weatherlink.com 1.10,2013-01-23 08:46:00,
2013-01-23 03:01:00,13.0,3.0,30.39,WSW,257,1.0,2.0,64,0.00,,,0.00,weatherlink.com 1.10,2013-01-23 09:01:00,
2013-01-23 03:16:00,13.0,3.0,30.38,West,273,0.0,1.0,64,0.00,,,0.00,weatherlink.com 1.10,2013-01-23 09:16:00,
2013-01-23 03:31:00,13.1,3.0,30.38,West,273,0.0,1.0,64,0.00,,,0.00,weatherlink.com 1.10,2013-01-23 09:31:00,
2013-01-23 03:46:00,13.2,3.0,30.37,WSW,250,0.0,2.0,64,0.00,,,0.00,weatherlink.com 1.10,2013-01-23 09:46:00,
2013-01-23 04:01:00,13.3,3.0,30.37,SSW,210,0.0,3.0,64,0.00,,,0.00,weatherlink.com 1.10,2013-01-23 10:01:00,
2013-01-23 04:16:00,13.3,4.0,30.36,South,187,1.0,4.0,65,0.00,,,0.00,weatherlink.com 1.10,2013-01-23 10:16:00,
2013-01-23 04:31:00,13.2,3.0,30.35,SE,145,1.0,3.0,64,0.00,,,0.00,weatherlink.com 1.10,2013-01-23 10:31:00,
2013-01-23 04:47:00,13.4,4.0,30.35,SSE,150,2.0,4.0,66,0.00,,,0.00,weatherlink.com 1.10,2013-01-23 10:47:00,
2013-01-23 05:01:00,13.4,4.0,30.35,SSE,168,0.0,2.0,65,0.00,,,0.00,weatherlink.com 1.10,2013-01-23 11:01:00,
2013-01-23 05:17:00,13.6,4.0,30.34,SE,129,1.0,3.0,66,0.00,,,0.00,weatherlink.com 1.10,2013-01-23 11:17:00,
2013-01-23 05:47:00,13.7,5.0,30.35,SSE,153,2.0,5.0,67,0.00,,,0.00,weatherlink.com 1.10,2013-01-23 11:47:00,
2013-01-23 06:02:00,13.7,5.0,30.35,SSW,194,0.0,5.0,68,0.00,,,0.00,weatherlink.com 1.10,2013-01-23 12:02:00,
2013-01-23 06:17:00,13.9,5.0,30.34,SSE,167,4.0,6.0,68,0.00,,,0.00,weatherlink.com 1.10,2013-01-23 12:17:00,
2013-01-23 06:32:00,13.9,5.0,30.34,SSW,194,0.0,6.0,68,0.00,,,0.00,weatherlink.com 1.10,2013-01-23 12:32:00,
2013-01-23 06:47:00,14.1,5.0,30.34,South,169,1.0,6.0,68,0.00,,,0.00,weatherlink.com 1.10,2013-01-23 12:47:00,
2013-01-23 07:02:00,14.1,5.0,30.33,South,183,5.0,7.0,67,0.00,,,0.00,weatherlink.com 1.10,2013-01-23 13:02:00,
2013-01-23 07:17:00,14.3,5.0,30.32,SSE,149,2.0,7.0,67,0.00,,,0.00,weatherlink.com 1.10,2013-01-23 13:17:00,
2013-01-23 07:32:00,14.4,5.0,30.31,South,172,1.0,8.0,67,0.00,,,0.00,weatherlink.com 1.10,2013-01-23 13:32:00,
2013-01-23 07:47:00,14.7,6.0,30.31,SE,136,2.0,7.0,68,0.00,,,0.00,weatherlink.com 1.10,2013-01-23 13:47:00,
2013-01-23 08:02:00,15.0,6.0,30.32,SSE,165,2.0,6.0,68,0.00,,,0.00,weatherlink.com 1.10,2013-01-23 14:02:00,
2013-01-23 08:17:00,15.3,6.0,30.32,SW,225,3.0,7.0,68,0.00,,,0.00,weatherlink.com 1.10,2013-01-23 14:17:00,
2013-01-23 08:32:00,15.7,7.0,30.31,SSE,150,1.0,5.0,68,0.00,,,0.00,weatherlink.com 1.10,2013-01-23 14:32:00,
2013-01-23 08:47:00,16.1,7.0,30.32,SSE,161,2.0,6.0,67,0.00,,,0.00,weatherlink.com 1.10,2013-01-23 14:47:00,
2013-01-23 09:02:00,16.4,7.0,30.32,SSE,162,4.0,4.0,67,0.00,,,0.00,weatherlink.com 1.10,2013-01-23 15:02:00,
2013-01-23 09:17:00,16.9,7.0,30.31,South,191,3.0,5.0,66,0.00,,,0.00,weatherlink.com 1.10,2013-01-23 15:17:00,
2013-01-23 09:32:00,17.4,8.0,30.32,SE,143,3.0,7.0,66,0.00,,,0.00,weatherlink.com 1.10,2013-01-23 15:32:00,
2013-01-23 09:47:00,17.8,8.0,30.32,SSW,201,2.0,7.0,66,0.00,,,0.00,weatherlink.com 1.10,2013-01-23 15:47:00,
2013-01-23 10:02:00,18.1,8.0,30.31,SSW,203,2.0,6.0,66,0.00,,,0.00,weatherlink.com 1.10,2013-01-23 16:02:00,
2013-01-23 10:17:00,18.5,9.0,30.31,SSE,150,2.0,8.0,66,0.00,,,0.00,weatherlink.com 1.10,2013-01-23 16:17:00,
2013-01-23 10:32:00,19.1,9.0,30.30,SSE,150,0.0,8.0,65,0.00,,,0.00,weatherlink.com 1.10,2013-01-23 16:32:00,
2013-01-23 10:47:00,20.1,9.0,30.29,South,188,2.0,7.0,63,0.00,,,0.00,weatherlink.com 1.10,2013-01-23 16:47:00,
2013-01-23 11:02:00,21.0,9.0,30.28,SE,143,2.0,11.0,61,0.00,,,0.00,weatherlink.com 1.10,2013-01-23 17:02:00,
2013-01-23 11:17:00,22.1,10.0,30.27,SSW,201,5.0,8.0,60,0.00,,,0.00,weatherlink.com 1.10,2013-01-23 17:17:00,
2013-01-23 11:32:00,23.4,10.0,30.26,SSW,192,3.0,9.0,58,0.00,,,0.00,weatherlink.com 1.10,2013-01-23 17:32:00,
2013-01-23 11:47:00,25.0,11.0,30.24,ENE,63,1.0,10.0,56,0.00,,,0.00,weatherlink.com 1.10,2013-01-23 17:47:00,
2013-01-23 12:03:00,26.7,12.0,30.23,SSW,192,6.0,9.0,55,0.00,,,0.00,weatherlink.com 1.10,2013-01-23 18:03:00,
2013-01-23 12:18:00,27.5,12.0,30.22,SSW,207,3.0,10.0,53,0.00,,,0.00,weatherlink.com 1.10,2013-01-23 18:18:00,
2013-01-23 12:33:00,28.4,14.0,30.21,WSW,250,1.0,8.0,54,0.00,,,0.00,weatherlink.com 1.10,2013-01-23 18:33:00,
2013-01-23 12:48:00,29.1,14.0,30.20,West,274,0.0,8.0,53,0.00,,,0.00,weatherlink.com 1.10,2013-01-23 18:48:00,
2013-01-23 13:03:00,29.6,14.0,30.19,WSW,245,4.0,8.0,53,0.00,,,0.00,weatherlink.com 1.10,2013-01-23 19:03:00,
2013-01-23 13:18:00,30.1,15.0,30.19,SE,133,4.0,9.0,53,0.00,,,0.00,weatherlink.com 1.10,2013-01-23 19:18:00,
2013-01-23 13:33:00,30.8,15.0,30.18,WNW,284,8.0,11.0,53,0.00,,,0.00,weatherlink.com 1.10,2013-01-23 19:33:00,
2013-01-23 13:48:00,30.8,15.0,30.18,WNW,286,3.0,12.0,53,0.00,,,0.00,weatherlink.com 1.10,2013-01-23 19:48:00,
2013-01-23 14:03:00,31.8,17.0,30.18,West,279,5.0,13.0,54,0.00,,,0.00,weatherlink.com 1.10,2013-01-23 20:03:00,
2013-01-23 14:18:00,31.8,16.0,30.18,WNW,282,5.0,18.0,52,0.00,,,0.00,weatherlink.com 1.10,2013-01-23 20:18:00,
2013-01-23 15:03:00,32.1,17.0,30.18,WNW,297,3.0,16.0,55,0.00,,,0.00,weatherlink.com 1.10,2013-01-23 21:03:00,
2013-01-23 15:18:00,31.9,18.0,30.18,NNW,340,9.0,17.0,56,0.00,,,0.00,weatherlink.com 1.10,2013-01-23 21:18:00,
2013-01-23 15:33:00,31.4,18.0,30.18,West,277,8.0,12.0,58,0.00,,,0.00,weatherlink.com 1.10,2013-01-23 21:33:00,
2013-01-23 15:48:00,30.8,18.0,30.18,South,172,6.0,14.0,59,0.00,,,0.00,weatherlink.com 1.10,2013-01-23 21:48:00,
2013-01-23 16:03:00,30.3,18.0,30.19,WNW,288,4.0,13.0,61,0.00,,,0.00,weatherlink.com 1.10,2013-01-23 22:03:00,
2013-01-23 16:18:00,29.5,18.0,30.20,WNW,287,9.0,15.0,62,0.00,,,0.00,weatherlink.com 1.10,2013-01-23 22:18:00,
2013-01-23 16:33:00,28.5,17.0,30.20,West,277,5.0,13.0,63,0.00,,,0.00,weatherlink.com 1.10,2013-01-23 22:33:00,
2013-01-23 16:48:00,27.8,17.0,30.20,NW,318,4.0,16.0,65,0.00,,,0.00,weatherlink.com 1.10,2013-01-23 22:48:00,
2013-01-23 17:03:00,27.3,17.0,30.21,WNW,301,2.0,11.0,66,0.00,,,0.00,weatherlink.com 1.10,2013-01-23 23:03:00,
2013-01-23 17:18:00,26.8,16.0,30.22,NW,305,6.0,14.0,65,0.00,,,0.00,weatherlink.com 1.10,2013-01-23 23:18:00,
2013-01-23 17:33:00,26.3,16.0,30.22,NW,312,7.0,12.0,65,0.00,,,0.00,weatherlink.com 1.10,2013-01-23 23:33:00,
2013-01-23 17:48:00,25.7,16.0,30.23,NW,325,4.0,10.0,66,0.00,,,0.00,weatherlink.com 1.10,2013-01-23 23:48:00,
2013-01-23 18:03:00,25.4,15.0,30.23,NW,314,4.0,10.0,66,0.00,,,0.00,weatherlink.com 1.10,2013-01-24 00:03:00,
2013-01-23 18:18:00,25.2,16.0,30.24,NNW,338,8.0,10.0,67,0.00,,,0.00,weatherlink.com 1.10,2013-01-24 00:18:00,
2013-01-23 18:33:00,25.0,16.0,30.25,WNW,298,2.0,10.0,68,0.00,,,0.00,weatherlink.com 1.10,2013-01-24 00:33:00,
2013-01-23 18:48:00,24.6,15.0,30.25,NW,312,7.0,11.0,68,0.00,,,0.00,weatherlink.com 1.10,2013-01-24 00:48:00,
2013-01-23 19:03:00,24.6,15.0,30.26,NW,304,14.0,19.0,67,0.00,,,0.00,weatherlink.com 1.10,2013-01-24 01:03:00,
2013-01-23 19:18:00,24.2,14.0,30.27,WNW,300,13.0,20.0,64,0.00,,,0.00,weatherlink.com 1.10,2013-01-24 01:18:00,
2013-01-23 19:33:00,23.4,13.0,30.27,NNW,335,9.0,14.0,64,0.00,,,0.00,weatherlink.com 1.10,2013-01-24 01:33:00,
2013-01-23 19:48:00,22.8,12.0,30.28,NW,314,8.0,15.0,64,0.00,,,0.00,weatherlink.com 1.10,2013-01-24 01:48:00,
2013-01-23 20:03:00,22.4,12.0,30.29,North,6,1.0,16.0,64,0.00,,,0.00,weatherlink.com 1.10,2013-01-24 02:03:00,
2013-01-23 20:18:00,21.9,12.0,30.30,NNW,337,2.0,12.0,65,0.00,,,0.00,weatherlink.com 1.10,2013-01-24 02:18:00,
2013-01-23 20:33:00,21.3,12.0,30.31,NNW,343,2.0,13.0,66,0.00,,,0.00,weatherlink.com 1.10,2013-01-24 02:33:00,
2013-01-23 20:48:00,19.9,8.0,30.32,NNW,332,6.0,14.0,61,0.00,,,0.00,weatherlink.com 1.10,2013-01-24 02:48:00,
2013-01-23 21:03:00,18.7,8.0,30.33,NNW,330,5.0,14.0,62,0.00,,,0.00,weatherlink.com 1.10,2013-01-24 03:03:00,
2013-01-23 21:18:00,17.7,7.0,30.34,NNW,335,3.0,11.0,63,0.00,,,0.00,weatherlink.com 1.10,2013-01-24 03:18:00,
2013-01-23 21:33:00,16.9,6.0,30.36,NNW,330,3.0,9.0,62,0.00,,,0.00,weatherlink.com 1.10,2013-01-24 03:33:00,
2013-01-23 21:48:00,15.9,6.0,30.36,NNW,335,2.0,4.0,64,0.00,,,0.00,weatherlink.com 1.10,2013-01-24 03:48:00,
2013-01-23 22:03:00,15.0,5.0,30.38,NNW,346,3.0,11.0,66,0.00,,,0.00,weatherlink.com 1.10,2013-01-24 04:03:00,
2013-01-23 22:18:00,14.3,6.0,30.39,NNW,335,2.0,10.0,68,0.00,,,0.00,weatherlink.com 1.10,2013-01-24 04:18:00,
2013-01-23 22:33:00,13.7,5.0,30.40,NNW,341,4.0,15.0,69,0.00,,,0.00,weatherlink.com 1.10,2013-01-24 04:33:00,
2013-01-23 22:48:00,13.2,5.0,30.41,NNW,336,1.0,7.0,71,0.00,,,0.00,weatherlink.com 1.10,2013-01-24 04:48:00,
2013-01-23 23:03:00,12.9,5.0,30.42,West,276,0.0,5.0,71,0.00,,,0.00,weatherlink.com 1.10,2013-01-24 05:03:00,
2013-01-23 23:18:00,12.6,5.0,30.42,WNW,289,4.0,11.0,72,0.00,,,0.00,weatherlink.com 1.10,2013-01-24 05:18:00,
2013-01-23 23:33:00,12.4,5.0,30.43,NNW,328,2.0,8.0,73,0.00,,,0.00,weatherlink.com 1.10,2013-01-24 05:33:00,
2013-01-23 23:48:00,11.9,5.0,30.44,NW,311,2.0,6.0,74,0.00,,,0.00,weatherlink.com 1.10,2013-01-24 05:48:00,